Regional Weather Roundup
Issued by NWS

Home | Current Version | Previous Version | Graphics & Text | Print | Product List | Glossary On
Versions: 1 2 3 4 5 6 7 8 9 10 11 12 13 14 15 16 17 18 19 20 21 22 23 24 25 26 27 28 29 30 31 32 33 34 35 36 37 38 39 40 41 42 43 44 45 46 47 48 49 50
000
ASUS43 KIND 171709
RWRIN

WEATHER ROUNDUP FOR INDIANA
NATIONAL WEATHER SERVICE INDIANAPOLIS IN
100 PM EDT THU AUG 17 2017

NOTE: "FAIR" INDICATES FEW OR NO CLOUDS BELOW 12,000 FEET WITH NO
SIGNIFICANT WEATHER AND/OR OBSTRUCTIONS TO VISIBILITY.

* - STATION DOES NOT REPORT WEATHER SUCH AS PRECIPITATION OR FOG.

+ - STATION NOT QUALITY CONTROLLED BY THE NATIONAL WEATHER SERVICE.
    USE DATA WITH CAUTION...ESPECIALLY DEWPOINT AND RELATIVE
    HUMIDITY OBSERVATIONS.

INZ001>003-010>013-019-020-171800-
NORTHWEST INDIANA

CITY           SKY/WX    TMP DP  RH WIND       PRES   REMARKS
GARY /AIRPORT/ CLOUDY    79  68  69 SW17      29.77F
KNOX *+        PTSUNNY   79  70  73 SW15G22   29.78F
LA PORTE +     CLOUDY    80  69  69 SW16G23   29.79S
MICHIGAN CITY+ CLOUDY    79  68  69 SW14      29.78R
MONTICELLO +   MOSUNNY   82  68  61 SW10      29.80F
RENSSELAER +   CLOUDY    79  64  61 SW16G24   29.80F
VALPARAISO     CLOUDY    82  70  66 SW16      29.78F

$$

LMZ046-743>745-171800-
SOUTHERN LAKE MICHIGAN

STATION/POSITION TIME  TEMP    WIND        PRES    WAVE
                       AIR SEA DIR/SP/G            HT
                 (UTC) (F)     (DEG/KT/KT) (MB)    (FT)
BURNS HARBOR     1640   78     210/ 17/ 23 1008.1F
MICHIGAN CITY    1640   76     220/ 17/ 19   N/A
5NW MICH CITY    1700   75 74  240/ 10/ 14   N/A     2

$$

INZ004-005-014>016-021>024-171800-
NORTH CENTRAL INDIANA

CITY           SKY/WX    TMP DP  RH WIND       PRES   REMARKS
ELKHART        MOSUNNY   81  70  69 S8G16     29.78F
GOSHEN         CLOUDY    79  70  74 SW10      29.79F
LOGANSPORT +   CLOUDY    79  70  73 SW14      29.82F
PERU/GRISSOM   CLOUDY    79  71  78 SW16      29.81F
ROCHESTER +    CLOUDY    82  70  65 SW10G17   29.81F
SOUTH BEND     CLOUDY    82  71  69 SW12      29.78F
WARSAW +       CLOUDY    79  72  78 SW7       29.81F

$$

INZ006>009-017-018-025>027-171800-
NORTHEAST INDIANA

CITY           SKY/WX    TMP DP  RH WIND       PRES   REMARKS
AUBURN +       CLOUDY    77  72  83 SW5       29.82F
FORT WAYNE     CLOUDY    78  73  84 S12       29.83F
HUNTINGTON +   CLOUDY    77  75  92 SW8       29.83S
KENDALLVILLE + PTSUNNY   78  75  91 SW9G17    29.82F

$$

INZ028-029-035-036-043>045-051>053-171800-
WEST CENTRAL INDIANA

CITY           SKY/WX    TMP DP  RH WIND       PRES   REMARKS
GREENCASTLE +  CLOUDY    79  68  69 SW5       29.88F
LAFAYETTE      MOSUNNY   81  71  71 SW13G21   29.81F
TERRE HAUTE    MOSUNNY   81  68  64 SW15G22   29.87F

$$

INZ030>032-037>040-046>048-054>057-064-065-171800-
CENTRAL INDIANA

CITY           SKY/WX    TMP DP  RH WIND       PRES   REMARKS
ANDERSON       PTSUNNY   77  73  88 MISG      29.87S
CP ATTERBURY + RAIN      81  72  74 W16G26    29.88S
COLUMBUS       PTSUNNY   82  75  78 SW14G21   29.88F
FRANKFORT +    PTSUNNY   83  70  65 SW12G18   29.86F
GREENWOOD *+   CLOUDY    74  70  86 W7G16     29.89R
INDIANAPOLIS   PTSUNNY   81  71  71 SW23      29.86F
-EAGLE CREEK   PTSUNNY   81  70  69 VRB7G20   29.86F
KOKOMO +       CLOUDY    80  70  71 SW15      29.84F
MARION +       CLOUDY    77  72  83 W14G20    29.85S
MT COMFORT *+  CLOUDY    75  72  88 W18G29    29.88R
SHELBYVILLE    MOSUNNY   83  73  72 SW15G24   29.85F
ZIONSVILLE +   CLOUDY    77  69  78 W14       29.87F

$$

INZ033-034-041-042-049-050-058-059-171800-
EAST CENTRAL INDIANA

CITY           SKY/WX    TMP DP  RH WIND       PRES   REMARKS
MUNCIE         HVY RAIN  80  74  81 W15G22    29.86S
RICHMOND +     PTSUNNY   79  72  78 S13G18    29.88F

$$

INZ060-061-067>069-081>083-085>088-171800-
SOUTHWEST INDIANA

CITY           SKY/WX    TMP DP  RH WIND       PRES   REMARKS
EVANSVILLE     PTSUNNY   86  72  62 W15       29.92F
HUNTINGBURG +  PTSUNNY   87  76  69 W16       29.92F HX  97
WASHINGTON +   CLOUDY    84  70  62 MISG      29.90F

$$

INZ062-063-066-070>080-084-089>092-171800-
SOUTH CENTRAL AND SOUTHEAST INDIANA

CITY           SKY/WX    TMP DP  RH WIND       PRES   REMARKS
BLOOMINGTON    CLOUDY    78  71  79 W8        29.90S
MADISON *+     MOSUNNY   86  70  58 SW13G22   29.92F
NORTH VERNON + CLOUDY    82  73  74 SW15G23   29.89F

$$





USA.gov is the U.S. government's official web portal to all federal, state and local government web resources and services.